Hourly Data Report for October 19, 2013

All times are specified in Local Standard Time (LST). Add 1 hour to adjust for Daylight Saving Time where and when it is observed.

IQALUIT CLIMATE
NUNAVUT

63°44'50.000" N
68°32'40.000" W
33.50 m
2402592
71321
XFB

Download Data

Hourly Data (October 2013)
Hourly Data Report for October 19, 2013
Temp Definition
°C
Dew Point Temp Definition
°C
Rel Hum Definition
%
Wind Dir Definition
10's deg

Wind Spd Definition
km/h
Visibility Definition
km
Stn Press Definition
kPa
Hmdx Definition


Wind Chill Definition


Weather Definition


TIME
00:00 0.8 0.8 100   0   101.22     LegendNANA
01:00 0.8 0.8 100   0   101.25     LegendNANA
02:00 0.8 0.8 100 36 4   101.26     LegendNANA
03:00 1.2 1.2 100 14 6   101.27     LegendNANA
04:00 1.3 1.3 100 13 6   101.25     LegendNANA
05:00 1.0 1.0 100 12 2   101.25     LegendNANA
06:00 1.0 1.0 100 14 4   101.27     LegendNANA
07:00 0.8 0.8 100 13 6   101.28     LegendNANA
08:00 1.1 1.1 100 13 11   101.30     LegendNANA
09:00 1.3 1.3 100 12 11   101.30     LegendNANA
10:00 1.4 1.4 100 12 15   101.29     LegendNANA
11:00 1.4 1.4 100 13 19   101.29     LegendNANA
12:00 1.4 1.4 100 16 11   101.32     LegendNANA
13:00 1.4 1.4 100 14 13   101.33     LegendNANA
14:00 1.2 1.2 100 14 13   101.37     LegendNANA
15:00 1.4 1.4 100 13 13   101.39     LegendNANA
16:00 1.5 1.5 100 13 13   101.38     LegendNANA
17:00 1.2 1.2 100 15 13   101.40     LegendNANA
18:00 1.2 1.2 100 14 11   101.43     LegendNANA
19:00 1.3 1.3 100 13 13   101.45     LegendNANA
20:00 1.1 1.1 100 13 15   101.46     LegendNANA
21:00 0.8 0.8 100 13 20   101.47     LegendNANA
22:00 0.7 0.7 100 13 19   101.47     LegendNANA
23:00 0.6 0.6 100 14 15   101.47     LegendNANA

Notes on Data Quality.

Legend

  • E = Estimated
  • M = Missing
  • NA = Not Available
  • ‡ = Partner data that is not subject to review by the National Climate Archives
Date modified: